Location: McFarlands Corners
(41.4117°N, 81.3382°W)
Time: 18:40:14
(UTC+00:00)

BlueWalker 3 - Pass Details

Date: 25 January 2026
Orbit: 450 x 461 km, 53.2° (Epoch: 11 February)

Event Time Altitude Azimuth Distance (km) Brightness Sun altitude
Rises 01:03:54 0° 286° (WNW) 2,454 6.5 -28.4°
Reaches altitude 10° 01:06:47 10° 311° (NW) 1,583 5.0 -29.0°
Enters shadow 01:07:19 12° 319° (NW) 1,472 4.7 -29.1°
